Powrót do katalogu

XINZHENGCHENG 01

AktywnyMilitariaPO
NORAD 68414·PAYLOAD·🇨🇳 China

Wystrzelony Mar 30, 2026 z Jiuquan Satellite Launch Center

Loading…

Następne Przeloty (najbliższe 24 godziny)

TLE

ŚwieżeSource: Space-Track

Epoka: Sep 14, 2026, 18:03 UTC

1 68414U 26066C   26257.75231206  .00000784  00000-0  80322-4 0  9999
2 68414  84.9708 170.7430 0024215 304.5264  55.3674 14.88772726 25055

Śledź XINZHENGCHENG 01 w czasie rzeczywistym z AllMySat

Download on the App Store